Location: Unspecified
(0.0000°N, 0.0000°E)
Time: 09:46:23
(UTC+00:00)

Vanguard 3 - Pass Details

Date: 14 December 2017
Orbit: 508 x 3264 km, 33.3° (Epoch: 20 April)

Event Time Altitude Azimuth Distance (km) Brightness Sun altitude
Rises 17:58:41 0° 335° (NNW) 3,229 10.3 -0.9°
Reaches altitude 10° 18:01:12 10° 350° (N) 2,569 9.6 -1.5°
Maximum altitude 18:06:13 24° 44° (NE) 2,252 8.9 -2.6°
Drops below altitude 10° 18:13:42 10° 93° (E) 4,017 10.1 -4.3°
Sets 18:18:52 0° 105° (ESE) 5,568 10.9 -5.5°
